Location: *
(42.5628°N, 2.3633°E)
Time: 03:37:13
(UTC+00:00)

ISS - Pass Details

Date: 30 March 2020
Orbit: 417 x 420 km, 51.6° (Epoch: 01 June)

Event Time Altitude Azimuth Distance (km) Brightness Sun altitude
Rises 18:48:09 0° 300° (WNW) 2,367 1.7 -6.9°
Reaches altitude 10° 18:50:44 10° 321° (NW) 1,501 -0.1 -7.4°
Maximum altitude 18:53:08 18° 6° (N) 1,108 -1.5 -7.8°
Drops below altitude 10° 18:55:32 10° 52° (NE) 1,498 -1.3 -8.2°
Enters shadow 18:56:36 - 63° (ENE) 1,830 -1.0 -8.4°
